Content
SEND FEEDBACK

Daily
Averages
Monthly
Summary
France

LYON, FRANCE


Home > Europe > France
Elevation: 659 feet     Latitude: 45 43N     Longitude: 004 57E

WEATHER
 
SELECT A DAY
Number of Records: 164,964;   Date Range: 7/1/96 - 12/20/14
 
SHARE

PRINT THIS DATA

[ ← Previous Day ]
WEATHER ALMANAC - JUNE 19, 2013
[ Next Day → ]
[ °C ]   °F
Weather ElementAverageHighLow
Temperature75.9 °F82.4 °F (2:30 pm)69.8 °F (4:00 am)
Dewpoint60.9 °F64.4 °F (12:30 am)59 °F (9:00 am)
Humidity60.4 %73 % (3:30 am)45 % (3:00 pm)
Barometer29.88 in29.95 in (10:30 pm)29.83 in (3:30 am)
Wind Speed7.6 mph17.3 mph (3:00 pm)
Weather ElementAverage
Visibility6.1 mi
Wind DirectionSSE (163.8 °)

Weather ElementTotal
Precipitation---
Cooling Degree Days11.1 (Base 65)
Growing Degree Days26.1 (Base 50)
Averaged from 47 records on June 19, 2013
WEATHER CONDITIONS BREAKOUT
WIND DIRECTION BREAKOUT
WEATHER BY HOUR - JUNE 19, 2013
[ °C ]   °F
Local TimeTemperatureDewpointHumidityBarometerVisibilityWind DirectionWind SpeedGust SpeedPrecipitationEventsConditions
12:30 AM77.0 °F64.4 °F65 %29.86 in6.2 miSSE (150°)2.3 mph
1:00 AM75.2 °F62.6 °F65 %29.89 in6.2 miSouth (190°)3.5 mph
1:30 AM77.0 °F62.6 °F61 %29.86 in6.2 miSSE (160°)4.6 mph
2:00 AM75.2 °F62.6 °F65 %29.86 in6.2 miSouth (170°)3.5 mph
2:30 AM73.4 °F62.6 °F69 %29.86 in6.2 miSouth (170°)2.3 mph
3:00 AM73.4 °F62.6 °F69 %29.86 in6.2 miSSE (160°)2.3 mph
3:30 AM71.6 °F62.6 °F73 %29.83 in6.2 miSE (140°)2.3 mph
4:00 AM69.8 °F60.8 °F73 %29.86 in6.2 miSSE (150°)2.3 mph
4:30 AM71.6 °F60.8 °F69 %29.86 in6.2 miEast (100°)2.3 mph
5:00 AM71.6 °F62.6 °F73 %29.86 in6.2 miSSE (150°)2.3 mph
5:30 AM69.8 °F60.8 °F73 %29.86 in3.1 miSouth (170°)4.6 mphMist
6:00 AM69.8 °F60.8 °F73 %29.86 in6.2 miSouth (180°)2.3 mph
6:30 AM69.8 °F60.8 °F73 %29.86 in6.2 miSSE (160°)3.5 mph
7:00 AM69.8 °F60.8 °F73 %29.86 in6.2 miVariable2.3 mph
7:30 AM71.6 °F60.8 °F69 %29.83 in6.2 miSSE (160°)3.5 mph
8:00 AM71.6 °F60.8 °F69 %29.86 in6.2 miSSE (150°)6.9 mph
8:30 AM73.4 °F60.8 °F65 %29.86 in6.2 miSE (140°)5.8 mph
9:00 AM75.2 °F59.0 °F57 %29.86 in6.2 miCalm
9:30 AM77.0 °F60.8 °F57 %29.86 in6.2 miCalm
10:00 AM77.0 °F60.8 °F57 %29.86 in6.2 miSouth (190°)4.6 mph
10:30 AM77.0 °F59.0 °F54 %29.89 in6.2 miSouth (190°)11.5 mph
11:00 AM78.8 °F60.8 °F54 %29.86 in6.2 miSouth (180°)10.4 mphScattered Clouds
11:30 AM78.8 °F60.8 °F54 %29.86 in6.2 miSouth (170°)3.5 mph
12:00 PM78.8 °F60.8 °F54 %29.89 in6.2 miSouth (180°)12.7 mph
12:30 PM78.8 °F60.8 °F54 %29.89 in6.2 miSouth (170°)5.8 mph
1:00 PM80.6 °F60.8 °F51 %29.89 in6.2 miSSW (200°)15.0 mph
1:30 PM80.6 °F60.8 °F51 %29.89 in6.2 miSSW (200°)15.0 mph
2:00 PM80.6 °F60.8 °F51 %29.89 in6.2 miSSW (210°)15.0 mph
2:30 PM82.4 °F62.6 °F51 %29.89 in6.2 miSSW (200°)12.7 mph
3:00 PM82.4 °F59.0 °F45 %29.89 in6.2 miSSW (210°)17.3 mph
3:30 PM82.4 °F60.8 °F48 %29.89 in6.2 miSW (220°)13.8 mph
4:00 PM80.6 °F59.0 °F48 %29.89 in6.2 miSSW (210°)9.2 mph
4:30 PM80.6 °F60.8 °F51 %29.89 in6.2 miSSW (200°)5.8 mph
5:00 PM80.6 °F60.8 °F51 %29.89 in6.2 miVariable2.3 mph
5:30 PM80.6 °F62.6 °F54 %29.89 in6.2 miSouth (180°)3.5 mph
6:00 PM80.6 °F60.8 °F51 %29.89 in6.2 miSouth (190°)11.5 mph
6:30 PM78.8 °F60.8 °F54 %29.89 in6.2 miSouth (170°)12.7 mph
7:00 PM78.8 °F62.6 °F57 %29.89 in6.2 miSouth (190°)12.7 mph
7:30 PM77.0 °F62.6 °F61 %29.89 in6.2 miSouth (180°)12.7 mph
8:00 PM77.0 °F62.6 °F61 %29.89 in6.2 miSouth (180°)11.5 mph
8:30 PM75.2 °F59.0 °F57 %29.89 in6.2 miSouth (190°)15.0 mph
9:00 PM73.4 °F59.0 °F61 %29.92 in6.2 miSouth (190°)15.0 mph
9:30 PM73.4 °F59.0 °F61 %29.92 in6.2 miSouth (190°)12.7 mph
10:00 PM71.6 °F59.0 °F64 %29.92 in6.2 miSouth (190°)11.5 mph
10:30 PM71.6 °F59.0 °F64 %29.95 in6.2 miSouth (190°)11.5 mph
11:00 PM71.6 °F59.0 °F64 %29.95 in6.2 miSSW (210°)8.1 mph
11:30 PM71.6 °F59.0 °F64 %29.95 in6.2 miSW (220°)6.9 mphOvercast
Hourly data recorded from LFLY, located miles away from Lyon, France







STORIES FROM OUR PARTNERS